iso_date,epoch_date,Year,Hour,Min,DOY,POS_DOY,Lat,Lon,BP,Ts,Ta,has_bp,has_ts,has_ta,BuoyID,Buoy_Type,Buoy_Owner,Logistics,Hemisphere
2018-03-04T12:56:09Z,1520168170,2018,12,56,63.539,63.539,-70.3926,-36.0902,993.8,4.29,-999.0,yes,yes,no,300234063808050,BD2GI,AOML,USN_SURVEY,South
2018-03-04T13:59:31Z,1520171971,2018,14,0,63.583,63.583,-70.2718,-36.4756,993.5,-3.82,-999.0,yes,yes,no,300234063808050,BD2GI,AOML,USN_SURVEY,South
2018-03-04T15:00:00Z,1520175600,2018,15,0,63.625,63.625,-70.16,-36.83,993.0,-3.3,-999.0,yes,yes,no,300234063808050,BD2GI,AOML,USN_SURVEY,South
2018-03-04T16:00:28Z,1520179229,2018,16,0,63.667,63.667,-70.0498,-37.1768,992.6,-3.67,-999.0,yes,yes,no,300234063808050,BD2GI,AOML,USN_SURVEY,South
2018-03-04T16:59:31Z,1520182771,2018,17,0,63.708,63.708,-69.9432,-37.5116,992.8,-5.0,-999.0,yes,yes,no,300234063808050,BD2GI,AOML,USN_SURVEY,South
2018-03-04T18:00:00Z,1520186400,2018,18,0,63.75,63.75,-69.8314,-37.8618,992.5,-5.0,-999.0,yes,yes,no,300234063808050,BD2GI,AOML,USN_SURVEY,South
2018-03-04T19:00:28Z,1520190029,2018,19,0,63.792,63.792,-69.7196,-38.2102,992.0,-4.13,-999.0,yes,yes,no,300234063808050,BD2GI,AOML,USN_SURVEY,South
2018-03-04T19:59:31Z,1520193571,2018,20,0,63.833,63.833,-69.6072,-38.5558,991.6,-4.18,-999.0,yes,yes,no,300234063808050,BD2GI,AOML,USN_SURVEY,South
2018-03-04T21:00:00Z,1520197200,2018,21,0,63.875,63.875,-69.4904,-38.8804,991.6,-5.0,-999.0,yes,yes,no,300234063808050,BD2GI,AOML,USN_SURVEY,South
2018-03-04T22:00:28Z,1520200829,2018,22,0,63.917,63.917,-69.3578,-39.179,992.2,-5.0,-999.0,yes,yes,no,300234063808050,BD2GI,AOML,USN_SURVEY,South
2018-03-04T22:59:31Z,1520204371,2018,23,0,63.958,63.958,-69.227,-39.4742,992.1,-5.0,-999.0,yes,yes,no,300234063808050,BD2GI,AOML,USN_SURVEY,South
2018-03-05T00:00:00Z,1520208000,2018,0,0,64.0,64.0,-69.0924,-39.7734,992.0,-5.0,-999.0,yes,yes,no,300234063808050,BD2GI,AOML,USN_SURVEY,South
2018-03-05T01:00:28Z,1520211629,2018,1,0,64.042,64.042,-68.929,-40.1364,991.9,-5.0,-999.0,yes,yes,no,300234063808050,BD2GI,AOML,USN_SURVEY,South
2018-03-05T01:59:31Z,1520215171,2018,2,0,64.083,64.083,-68.76,-40.5066,991.4,-4.99,-999.0,yes,yes,no,300234063808050,BD2GI,AOML,USN_SURVEY,South
2018-03-05T03:00:00Z,1520218800,2018,3,0,64.125,64.125,-68.6256,-40.801,991.0,-3.74,-999.0,yes,yes,no,300234063808050,BD2GI,AOML,USN_SURVEY,South
2018-03-05T04:00:28Z,1520222429,2018,4,0,64.167,64.167,-68.5346,-41.0004,990.7,-0.99,-999.0,yes,yes,no,300234063808050,BD2GI,AOML,USN_SURVEY,South
2018-03-05T04:59:31Z,1520225971,2018,5,0,64.208,64.208,-68.5352,-41.0064,990.0,-1.02,-999.0,yes,yes,no,300234063808050,BD2GI,AOML,USN_SURVEY,South
2018-03-05T06:00:00Z,1520229600,2018,6,0,64.25,64.25,-68.5364,-41.0154,989.6,-1.01,-999.0,yes,yes,no,300234063808050,BD2GI,AOML,USN_SURVEY,South
2018-03-05T07:00:28Z,1520233229,2018,7,0,64.292,64.292,-68.5382,-41.0256,988.9,-1.0,-999.0,yes,yes,no,300234063808050,BD2GI,AOML,USN_SURVEY,South
2018-03-05T07:59:31Z,1520236771,2018,8,0,64.333,64.333,-68.5396,-41.0336,988.6,-0.99,-999.0,yes,yes,no,300234063808050,BD2GI,AOML,USN_SURVEY,South
2018-03-05T09:00:00Z,1520240400,2018,9,0,64.375,64.375,-68.5414,-41.0422,988.0,-0.99,-999.0,yes,yes,no,300234063808050,BD2GI,AOML,USN_SURVEY,South
2018-03-05T10:00:28Z,1520244029,2018,10,0,64.417,64.417,-68.5426,-41.0454,987.4,-1.0,-999.0,yes,yes,no,300234063808050,BD2GI,AOML,USN_SURVEY,South
2018-03-05T10:59:31Z,1520247571,2018,11,0,64.458,64.458,-68.541,-41.0484,987.3,-1.0,-999.0,yes,yes,no,300234063808050,BD2GI,AOML,USN_SURVEY,South
2018-03-05T12:00:00Z,1520251200,2018,12,0,64.5,64.5,-68.537,-41.054,987.6,-0.98,-999.0,yes,yes,no,300234063808050,BD2GI,AOML,USN_SURVEY,South
2018-03-05T13:00:28Z,1520254829,2018,13,0,64.542,64.542,-68.5322,-41.066,987.9,-0.96,-999.0,yes,yes,no,300234063808050,BD2GI,AOML,USN_SURVEY,South
2018-03-05T13:59:31Z,1520258371,2018,14,0,64.583,64.583,-68.5288,-41.08,988.2,-0.96,-999.0,yes,yes,no,300234063808050,BD2GI,AOML,USN_SURVEY,South
2018-03-05T15:00:00Z,1520262000,2018,15,0,64.625,64.625,-68.5264,-41.0944,988.5,-0.95,-999.0,yes,yes,no,300234063808050,BD2GI,AOML,USN_SURVEY,South
2018-03-05T16:00:28Z,1520265629,2018,16,0,64.667,64.667,-68.5256,-41.1104,988.8,-0.94,-999.0,yes,yes,no,300234063808050,BD2GI,AOML,USN_SURVEY,South
2018-03-05T16:59:31Z,1520269171,2018,17,0,64.708,64.708,-68.5262,-41.1272,988.9,-0.95,-999.0,yes,yes,no,300234063808050,BD2GI,AOML,USN_SURVEY,South
2018-03-05T18:00:00Z,1520272800,2018,18,0,64.75,64.75,-68.5282,-41.143,989.2,-0.95,-999.0,yes,yes,no,300234063808050,BD2GI,AOML,USN_SURVEY,South
2018-03-05T19:00:28Z,1520276429,2018,19,0,64.792,64.792,-68.5314,-41.1554,989.0,-0.94,-999.0,yes,yes,no,300234063808050,BD2GI,AOML,USN_SURVEY,South
2018-03-05T19:59:31Z,1520279971,2018,20,0,64.833,64.833,-68.5344,-41.163,988.7,-0.94,-999.0,yes,yes,no,300234063808050,BD2GI,AOML,USN_SURVEY,South
2018-03-05T21:00:00Z,1520283600,2018,21,0,64.875,64.875,-68.5372,-41.167,988.7,-0.95,-999.0,yes,yes,no,300234063808050,BD2GI,AOML,USN_SURVEY,South
2018-03-05T22:00:28Z,1520287229,2018,22,0,64.917,64.917,-68.5378,-41.1682,988.4,-0.95,-999.0,yes,yes,no,300234063808050,BD2GI,AOML,USN_SURVEY,South
2018-03-05T22:59:31Z,1520290771,2018,23,0,64.958,64.958,-68.537,-41.167,988.4,-0.96,-999.0,yes,yes,no,300234063808050,BD2GI,AOML,USN_SURVEY,South
2018-03-06T00:00:00Z,1520294400,2018,0,0,65.0,65.0,-68.537,-41.167,987.9,-0.97,-999.0,yes,yes,no,300234063808050,BD2GI,AOML,USN_SURVEY,South
2018-03-06T01:00:28Z,1520298029,2018,1,0,65.042,65.042,-68.5312,-41.1746,987.6,-0.95,-999.0,yes,yes,no,300234063808050,BD2GI,AOML,USN_SURVEY,South
2018-03-06T01:59:31Z,1520301571,2018,2,0,65.083,65.083,-68.5282,-41.1836,987.0,-0.95,-999.0,yes,yes,no,300234063808050,BD2GI,AOML,USN_SURVEY,South
2018-03-06T03:00:00Z,1520305200,2018,3,0,65.125,65.125,-68.5282,-41.1836,986.7,-0.95,-999.0,yes,yes,no,300234063808050,BD2GI,AOML,USN_SURVEY,South
2018-03-06T04:00:28Z,1520308829,2018,4,0,65.167,65.167,-68.5252,-41.2084,985.9,-0.96,-999.0,yes,yes,no,300234063808050,BD2GI,AOML,USN_SURVEY,South
2018-03-06T04:59:31Z,1520312371,2018,5,0,65.208,65.208,-68.5258,-41.227,983.7,-0.97,-999.0,yes,yes,no,300234063808050,BD2GI,AOML,USN_SURVEY,South
2018-03-06T06:00:00Z,1520316000,2018,6,0,65.25,65.25,-68.5278,-41.2446,985.0,-0.98,-999.0,yes,yes,no,300234063808050,BD2GI,AOML,USN_SURVEY,South
2018-03-06T07:00:28Z,1520319629,2018,7,0,65.292,65.292,-68.5312,-41.259,984.4,-0.99,-999.0,yes,yes,no,300234063808050,BD2GI,AOML,USN_SURVEY,South
2018-03-06T07:59:31Z,1520323171,2018,8,0,65.333,65.333,-68.5312,-41.259,983.8,-1.0,-999.0,yes,yes,no,300234063808050,BD2GI,AOML,USN_SURVEY,South
2018-03-06T09:00:00Z,1520326800,2018,9,0,65.375,65.375,-68.5376,-41.2764,983.2,-0.99,-999.0,yes,yes,no,300234063808050,BD2GI,AOML,USN_SURVEY,South
2018-03-06T10:00:28Z,1520330429,2018,10,0,65.417,65.417,-68.5402,-41.2802,982.7,-0.97,-999.0,yes,yes,no,300234063808050,BD2GI,AOML,USN_SURVEY,South
2018-03-06T10:59:31Z,1520333971,2018,11,0,65.458,65.458,-68.5424,-41.2808,982.2,-0.95,-999.0,yes,yes,no,300234063808050,BD2GI,AOML,USN_SURVEY,South
2018-03-06T12:00:00Z,1520337600,2018,12,0,65.5,65.5,-68.5432,-41.2802,981.6,-0.95,-999.0,yes,yes,no,300234063808050,BD2GI,AOML,USN_SURVEY,South
2018-03-06T13:00:28Z,1520341229,2018,13,0,65.542,65.542,-68.5424,-41.282,980.9,-0.95,-999.0,yes,yes,no,300234063808050,BD2GI,AOML,USN_SURVEY,South
2018-03-06T13:59:31Z,1520344771,2018,14,0,65.583,65.583,-68.54,-41.2866,980.4,-0.94,-999.0,yes,yes,no,300234063808050,BD2GI,AOML,USN_SURVEY,South
2018-03-06T15:00:00Z,1520348400,2018,15,0,65.625,65.625,-68.5386,-41.294,979.8,-0.94,-999.0,yes,yes,no,300234063808050,BD2GI,AOML,USN_SURVEY,South
2018-03-06T16:00:28Z,1520352029,2018,16,0,65.667,65.667,-68.5376,-41.306,979.2,-0.94,-999.0,yes,yes,no,300234063808050,BD2GI,AOML,USN_SURVEY,South
2018-03-06T16:59:31Z,1520355571,2018,17,0,65.708,65.708,-68.5384,-41.3214,978.8,-0.95,-999.0,yes,yes,no,300234063808050,BD2GI,AOML,USN_SURVEY,South
2018-03-06T18:00:00Z,1520359200,2018,18,0,65.75,65.75,-68.5404,-41.3398,978.4,-0.95,-999.0,yes,yes,no,300234063808050,BD2GI,AOML,USN_SURVEY,South
2018-03-06T19:00:28Z,1520362829,2018,19,0,65.792,65.792,-68.543,-41.3568,978.1,-0.96,-999.0,yes,yes,no,300234063808050,BD2GI,AOML,USN_SURVEY,South
2018-03-06T19:59:31Z,1520366371,2018,20,0,65.833,65.833,-68.547,-41.3708,978.0,-0.96,-999.0,yes,yes,no,300234063808050,BD2GI,AOML,USN_SURVEY,South
2018-03-06T21:00:00Z,1520370000,2018,21,0,65.875,65.875,-68.5506,-41.3836,977.6,-0.97,-999.0,yes,yes,no,300234063808050,BD2GI,AOML,USN_SURVEY,South
2018-03-06T22:00:28Z,1520373629,2018,22,0,65.917,65.917,-68.5546,-41.391,977.3,-0.97,-999.0,yes,yes,no,300234063808050,BD2GI,AOML,USN_SURVEY,South
2018-03-06T22:59:31Z,1520377171,2018,23,0,65.958,65.958,-68.5578,-41.3948,976.9,-0.98,-999.0,yes,yes,no,300234063808050,BD2GI,AOML,USN_SURVEY,South
2018-03-07T00:00:00Z,1520380800,2018,0,0,66.0,66.0,-68.5598,-41.3938,976.8,-0.98,-999.0,yes,yes,no,300234063808050,BD2GI,AOML,USN_SURVEY,South
2018-03-07T01:00:28Z,1520384429,2018,1,0,66.042,66.042,-68.5594,-41.3924,976.8,-0.99,-999.0,yes,yes,no,300234063808050,BD2GI,AOML,USN_SURVEY,South
2018-03-07T01:59:31Z,1520387971,2018,2,0,66.083,66.083,-68.5572,-41.3938,976.7,-0.99,-999.0,yes,yes,no,300234063808050,BD2GI,AOML,USN_SURVEY,South
2018-03-07T03:00:00Z,1520391600,2018,3,0,66.125,66.125,-68.5536,-41.4012,976.7,-1.0,-999.0,yes,yes,no,300234063808050,BD2GI,AOML,USN_SURVEY,South
2018-03-07T04:00:28Z,1520395229,2018,4,0,66.167,66.167,-68.5508,-41.4124,976.7,-1.0,-999.0,yes,yes,no,300234063808050,BD2GI,AOML,USN_SURVEY,South
2018-03-07T04:59:31Z,1520398771,2018,5,0,66.208,66.208,-68.549,-41.4282,976.7,-1.01,-999.0,yes,yes,no,300234063808050,BD2GI,AOML,USN_SURVEY,South
2018-03-07T06:00:00Z,1520402400,2018,6,0,66.25,66.25,-68.5492,-41.4462,977.0,-1.01,-999.0,yes,yes,no,300234063808050,BD2GI,AOML,USN_SURVEY,South
2018-03-07T07:00:28Z,1520406029,2018,7,0,66.292,66.292,-68.551,-41.4654,977.5,-1.02,-999.0,yes,yes,no,300234063808050,BD2GI,AOML,USN_SURVEY,South
2018-03-07T07:59:31Z,1520409571,2018,8,0,66.333,66.333,-68.554,-41.4832,978.1,-1.02,-999.0,yes,yes,no,300234063808050,BD2GI,AOML,USN_SURVEY,South
2018-03-07T09:00:00Z,1520413200,2018,9,0,66.375,66.375,-68.5572,-41.4962,978.6,-1.02,-999.0,yes,yes,no,300234063808050,BD2GI,AOML,USN_SURVEY,South
2018-03-07T10:00:28Z,1520416829,2018,10,0,66.417,66.417,-68.5602,-41.506,979.2,-1.02,-999.0,yes,yes,no,300234063808050,BD2GI,AOML,USN_SURVEY,South
2018-03-07T10:59:31Z,1520420371,2018,11,0,66.458,66.458,-68.5632,-41.511,979.9,-1.02,-999.0,yes,yes,no,300234063808050,BD2GI,AOML,USN_SURVEY,South
2018-03-07T12:00:00Z,1520424000,2018,12,0,66.5,66.5,-68.5642,-41.513,980.3,-1.02,-999.0,yes,yes,no,300234063808050,BD2GI,AOML,USN_SURVEY,South
2018-03-07T13:00:28Z,1520427629,2018,13,0,66.542,66.542,-68.5636,-41.512,981.1,-1.02,-999.0,yes,yes,no,300234063808050,BD2GI,AOML,USN_SURVEY,South
2018-03-07T13:59:31Z,1520431171,2018,14,0,66.583,66.583,-68.5608,-41.512,981.5,-1.01,-999.0,yes,yes,no,300234063808050,BD2GI,AOML,USN_SURVEY,South
2018-03-07T15:00:00Z,1520434800,2018,15,0,66.625,66.625,-68.5566,-41.5146,982.1,-1.01,-999.0,yes,yes,no,300234063808050,BD2GI,AOML,USN_SURVEY,South
2018-03-07T16:00:28Z,1520438429,2018,16,0,66.667,66.667,-68.5526,-41.5188,982.6,-1.01,-999.0,yes,yes,no,300234063808050,BD2GI,AOML,USN_SURVEY,South
2018-03-07T16:59:31Z,1520441971,2018,17,0,66.708,66.708,-68.548,-41.528,983.2,-1.01,-999.0,yes,yes,no,300234063808050,BD2GI,AOML,USN_SURVEY,South
2018-03-07T18:00:00Z,1520445600,2018,18,0,66.75,66.75,-68.5442,-41.541,983.6,-1.01,-999.0,yes,yes,no,300234063808050,BD2GI,AOML,USN_SURVEY,South
2018-03-07T19:00:28Z,1520449229,2018,19,0,66.792,66.792,-68.5418,-41.5564,984.1,-1.01,-999.0,yes,yes,no,300234063808050,BD2GI,AOML,USN_SURVEY,South
2018-03-07T19:59:31Z,1520452771,2018,20,0,66.833,66.833,-68.5412,-41.5724,984.9,-1.02,-999.0,yes,yes,no,300234063808050,BD2GI,AOML,USN_SURVEY,South
2018-03-07T21:00:00Z,1520456400,2018,21,0,66.875,66.875,-68.5424,-41.5866,985.1,-1.02,-999.0,yes,yes,no,300234063808050,BD2GI,AOML,USN_SURVEY,South
2018-03-07T22:00:28Z,1520460029,2018,22,0,66.917,66.917,-68.544,-41.5942,985.2,-1.03,-999.0,yes,yes,no,300234063808050,BD2GI,AOML,USN_SURVEY,South
2018-03-07T22:59:31Z,1520463571,2018,23,0,66.958,66.958,-68.5456,-41.596,985.6,-1.03,-999.0,yes,yes,no,300234063808050,BD2GI,AOML,USN_SURVEY,South
2018-03-08T00:00:00Z,1520467200,2018,0,0,67.0,67.0,-68.5462,-41.5936,985.9,-1.04,-999.0,yes,yes,no,300234063808050,BD2GI,AOML,USN_SURVEY,South
2018-03-08T01:00:28Z,1520470829,2018,1,0,67.042,67.042,-68.5444,-41.5882,985.9,-1.03,-999.0,yes,yes,no,300234063808050,BD2GI,AOML,USN_SURVEY,South
2018-03-08T01:59:31Z,1520474371,2018,2,0,67.083,67.083,-68.542,-41.5812,985.6,-1.02,-999.0,yes,yes,no,300234063808050,BD2GI,AOML,USN_SURVEY,South
2018-03-08T03:00:00Z,1520478000,2018,3,0,67.125,67.125,-68.5386,-41.5754,985.4,-1.03,-999.0,yes,yes,no,300234063808050,BD2GI,AOML,USN_SURVEY,South
2018-03-08T04:00:28Z,1520481629,2018,4,0,67.167,67.167,-68.5348,-41.5728,985.0,-1.03,-999.0,yes,yes,no,300234063808050,BD2GI,AOML,USN_SURVEY,South
2018-03-08T04:59:31Z,1520485171,2018,5,0,67.208,67.208,-68.5306,-41.5746,984.8,-1.03,-999.0,yes,yes,no,300234063808050,BD2GI,AOML,USN_SURVEY,South
2018-03-08T06:00:00Z,1520488800,2018,6,0,67.25,67.25,-68.5262,-41.581,984.6,-1.04,-999.0,yes,yes,no,300234063808050,BD2GI,AOML,USN_SURVEY,South
2018-03-08T07:00:28Z,1520492429,2018,7,0,67.292,67.292,-68.5234,-41.5892,984.5,-1.06,-999.0,yes,yes,no,300234063808050,BD2GI,AOML,USN_SURVEY,South
2018-03-08T07:59:31Z,1520495971,2018,8,0,67.333,67.333,-68.5212,-41.601,984.6,-1.06,-999.0,yes,yes,no,300234063808050,BD2GI,AOML,USN_SURVEY,South
2018-03-08T09:00:00Z,1520499600,2018,9,0,67.375,67.375,-68.521,-41.613,984.4,-1.08,-999.0,yes,yes,no,300234063808050,BD2GI,AOML,USN_SURVEY,South
2018-03-08T10:00:28Z,1520503229,2018,10,0,67.417,67.417,-68.5226,-41.6212,984.0,-1.11,-999.0,yes,yes,no,300234063808050,BD2GI,AOML,USN_SURVEY,South
2018-03-08T10:59:31Z,1520506771,2018,11,0,67.458,67.458,-68.5246,-41.624,983.6,-1.13,-999.0,yes,yes,no,300234063808050,BD2GI,AOML,USN_SURVEY,South
2018-03-08T12:00:00Z,1520510400,2018,12,0,67.5,67.5,-68.5262,-41.6222,983.3,-1.15,-999.0,yes,yes,no,300234063808050,BD2GI,AOML,USN_SURVEY,South
2018-03-08T13:00:28Z,1520514029,2018,13,0,67.542,67.542,-68.5262,-41.6166,982.7,-1.17,-999.0,yes,yes,no,300234063808050,BD2GI,AOML,USN_SURVEY,South
2018-03-08T13:59:31Z,1520517571,2018,14,0,67.583,67.583,-68.5254,-41.6102,981.8,-1.18,-999.0,yes,yes,no,300234063808050,BD2GI,AOML,USN_SURVEY,South
2018-03-08T15:00:00Z,1520521200,2018,15,0,67.625,67.625,-68.5236,-41.6034,981.5,-1.24,-999.0,yes,yes,no,300234063808050,BD2GI,AOML,USN_SURVEY,South
2018-03-08T16:00:28Z,1520524829,2018,16,0,67.667,67.667,-68.5208,-41.5984,980.8,-1.22,-999.0,yes,yes,no,300234063808050,BD2GI,AOML,USN_SURVEY,South
2018-03-08T16:59:31Z,1520528371,2018,17,0,67.708,67.708,-68.5208,-41.5984,980.2,-1.32,-999.0,yes,yes,no,300234063808050,BD2GI,AOML,USN_SURVEY,South
2018-03-08T18:00:00Z,1520532000,2018,18,0,67.75,67.75,-68.5134,-41.5912,979.8,-1.26,-999.0,yes,yes,no,300234063808050,BD2GI,AOML,USN_SURVEY,South
2018-03-08T19:00:28Z,1520535629,2018,19,0,67.792,67.792,-68.509,-41.5896,979.1,-1.24,-999.0,yes,yes,no,300234063808050,BD2GI,AOML,USN_SURVEY,South
2018-03-08T19:59:31Z,1520539171,2018,20,0,67.833,67.833,-68.5046,-41.5922,979.3,-1.23,-999.0,yes,yes,no,300234063808050,BD2GI,AOML,USN_SURVEY,South
2018-03-08T21:00:00Z,1520542800,2018,21,0,67.875,67.875,-68.5006,-41.5964,979.2,-1.25,-999.0,yes,yes,no,300234063808050,BD2GI,AOML,USN_SURVEY,South
2018-03-08T22:00:28Z,1520546429,2018,22,0,67.917,67.917,-68.5006,-41.5964,979.4,-1.26,-999.0,yes,yes,no,300234063808050,BD2GI,AOML,USN_SURVEY,South
2018-03-08T22:59:31Z,1520549971,2018,23,0,67.958,67.958,-68.5006,-41.5964,979.5,-1.28,-999.0,yes,yes,no,300234063808050,BD2GI,AOML,USN_SURVEY,South
2018-03-09T00:00:00Z,1520553600,2018,0,0,68.0,68.0,-68.5006,-41.5964,979.8,-1.28,-999.0,yes,yes,no,300234063808050,BD2GI,AOML,USN_SURVEY,South
2018-03-09T01:00:28Z,1520557229,2018,1,0,68.042,68.042,-68.5006,-41.5964,980.3,-1.29,-999.0,yes,yes,no,300234063808050,BD2GI,AOML,USN_SURVEY,South
2018-03-09T01:59:31Z,1520560771,2018,2,0,68.083,68.083,-68.489,-41.616,980.9,-1.29,-999.0,yes,yes,no,300234063808050,BD2GI,AOML,USN_SURVEY,South
2018-03-09T03:00:00Z,1520564400,2018,3,0,68.125,68.125,-68.489,-41.616,981.8,-1.32,-999.0,yes,yes,no,300234063808050,BD2GI,AOML,USN_SURVEY,South
2018-03-09T04:00:28Z,1520568029,2018,4,0,68.167,68.167,-68.489,-41.616,982.7,-1.29,-999.0,yes,yes,no,300234063808050,BD2GI,AOML,USN_SURVEY,South
2018-03-09T04:59:31Z,1520571571,2018,5,0,68.208,68.208,-68.489,-41.616,983.6,-1.29,-999.0,yes,yes,no,300234063808050,BD2GI,AOML,USN_SURVEY,South
2018-03-09T06:00:00Z,1520575200,2018,6,0,68.25,68.25,-68.4734,-41.6102,984.3,-1.32,-999.0,yes,yes,no,300234063808050,BD2GI,AOML,USN_SURVEY,South
2018-03-09T07:00:28Z,1520578829,2018,7,0,68.292,68.292,-68.4734,-41.6102,984.8,-1.32,-999.0,yes,yes,no,300234063808050,BD2GI,AOML,USN_SURVEY,South
2018-03-09T07:59:31Z,1520582371,2018,8,0,68.333,68.333,-68.4734,-41.6102,985.4,-1.32,-999.0,yes,yes,no,300234063808050,BD2GI,AOML,USN_SURVEY,South
2018-03-09T09:00:00Z,1520586000,2018,9,0,68.375,68.375,-68.4734,-41.6102,986.0,-1.35,-999.0,yes,yes,no,300234063808050,BD2GI,AOML,USN_SURVEY,South
2018-03-09T10:00:28Z,1520589629,2018,10,0,68.417,68.417,-68.4734,-41.6102,986.4,-1.36,-999.0,yes,yes,no,300234063808050,BD2GI,AOML,USN_SURVEY,South
2018-03-09T10:59:31Z,1520593171,2018,11,0,68.458,68.458,-68.4734,-41.6102,986.5,-1.37,-999.0,yes,yes,no,300234063808050,BD2GI,AOML,USN_SURVEY,South
2018-03-09T12:00:00Z,1520596800,2018,12,0,68.5,68.5,-68.4734,-41.6102,986.8,-1.38,-999.0,yes,yes,no,300234063808050,BD2GI,AOML,USN_SURVEY,South
2018-03-09T13:00:28Z,1520600429,2018,13,0,68.542,68.542,-68.4734,-41.6102,987.0,-1.38,-999.0,yes,yes,no,300234063808050,BD2GI,AOML,USN_SURVEY,South
2018-03-09T13:59:31Z,1520603971,2018,14,0,68.583,68.583,-68.4734,-41.6102,987.0,-1.35,-999.0,yes,yes,no,300234063808050,BD2GI,AOML,USN_SURVEY,South
2018-03-09T15:00:00Z,1520607600,2018,15,0,68.625,68.625,-68.4734,-41.6102,987.7,-1.34,-999.0,yes,yes,no,300234063808050,BD2GI,AOML,USN_SURVEY,South
2018-03-09T16:00:28Z,1520611229,2018,16,0,68.667,68.667,-68.4734,-41.6102,987.9,-1.36,-999.0,yes,yes,no,300234063808050,BD2GI,AOML,USN_SURVEY,South
2018-03-09T16:59:31Z,1520614771,2018,17,0,68.708,68.708,-68.4734,-41.6102,988.6,-1.35,-999.0,yes,yes,no,300234063808050,BD2GI,AOML,USN_SURVEY,South
2018-03-09T18:00:00Z,1520618400,2018,18,0,68.75,68.75,-68.4186,-41.6614,988.9,-1.35,-999.0,yes,yes,no,300234063808050,BD2GI,AOML,USN_SURVEY,South
2018-03-09T19:00:28Z,1520622029,2018,19,0,68.792,68.792,-68.4186,-41.6614,989.5,-1.35,-999.0,yes,yes,no,300234063808050,BD2GI,AOML,USN_SURVEY,South
2018-03-09T19:59:31Z,1520625571,2018,20,0,68.833,68.833,-68.4186,-41.6614,989.8,-1.36,-999.0,yes,yes,no,300234063808050,BD2GI,AOML,USN_SURVEY,South
2018-03-09T21:00:00Z,1520629200,2018,21,0,68.875,68.875,-68.4186,-41.6614,990.4,-1.37,-999.0,yes,yes,no,300234063808050,BD2GI,AOML,USN_SURVEY,South
2018-03-09T22:00:28Z,1520632829,2018,22,0,68.917,68.917,-68.4186,-41.6614,991.1,-1.4,-999.0,yes,yes,no,300234063808050,BD2GI,AOML,USN_SURVEY,South
2018-03-09T22:59:31Z,1520636371,2018,23,0,68.958,68.958,-68.3786,-41.6758,991.4,-1.53,-999.0,yes,yes,no,300234063808050,BD2GI,AOML,USN_SURVEY,South
2018-03-10T00:00:00Z,1520640000,2018,0,0,69.0,69.0,-68.3702,-41.6712,987.7,-1.42,-999.0,yes,yes,no,300234063808050,BD2GI,AOML,USN_SURVEY,South
2018-03-10T01:00:28Z,1520643629,2018,1,0,69.042,69.042,-68.3702,-41.6712,993.1,-1.44,-999.0,yes,yes,no,300234063808050,BD2GI,AOML,USN_SURVEY,South
2018-03-10T01:59:31Z,1520647171,2018,2,0,69.083,69.083,-68.363,-41.6894,992.0,-1.48,-999.0,yes,yes,no,300234063808050,BD2GI,AOML,USN_SURVEY,South
2018-03-10T03:00:00Z,1520650800,2018,3,0,69.125,69.125,-68.3554,-41.658,987.6,-1.5,-999.0,yes,yes,no,300234063808050,BD2GI,AOML,USN_SURVEY,South
2018-03-10T04:00:28Z,1520654429,2018,4,0,69.167,69.167,-68.348,-41.6294,983.6,-1.48,-999.0,yes,yes,no,300234063808050,BD2GI,AOML,USN_SURVEY,South
2018-03-10T04:59:31Z,1520657971,2018,5,0,69.208,69.208,-68.3396,-41.5946,980.7,-1.43,-999.0,yes,yes,no,300234063808050,BD2GI,AOML,USN_SURVEY,South
2018-03-10T06:00:00Z,1520661600,2018,6,0,69.25,69.25,-68.3304,-41.558,980.1,-1.47,-999.0,yes,yes,no,300234063808050,BD2GI,AOML,USN_SURVEY,South
2018-03-10T07:00:28Z,1520665229,2018,7,0,69.292,69.292,-68.3196,-41.5236,975.4,-1.43,-999.0,yes,yes,no,300234063808050,BD2GI,AOML,USN_SURVEY,South
2018-03-10T07:59:31Z,1520668771,2018,8,0,69.333,69.333,-68.3076,-41.4906,974.2,-1.47,-999.0,yes,yes,no,300234063808050,BD2GI,AOML,USN_SURVEY,South
2018-03-10T09:00:00Z,1520672400,2018,9,0,69.375,69.375,-68.294,-41.4624,975.2,-1.47,-999.0,yes,yes,no,300234063808050,BD2GI,AOML,USN_SURVEY,South
2018-03-10T10:00:28Z,1520676029,2018,10,0,69.417,69.417,-68.2798,-41.4424,979.2,-1.49,-999.0,yes,yes,no,300234063808050,BD2GI,AOML,USN_SURVEY,South
2018-03-10T10:59:31Z,1520679571,2018,11,0,69.458,69.458,-68.2672,-41.4296,982.7,-1.5,-999.0,yes,yes,no,300234063808050,BD2GI,AOML,USN_SURVEY,South
2018-03-10T12:00:00Z,1520683200,2018,12,0,69.5,69.5,-68.257,-41.4202,985.4,-1.54,-999.0,yes,yes,no,300234063808050,BD2GI,AOML,USN_SURVEY,South
2018-03-10T13:00:28Z,1520686829,2018,13,0,69.542,69.542,-68.2486,-41.4132,987.1,-1.46,-999.0,yes,yes,no,300234063808050,BD2GI,AOML,USN_SURVEY,South
2018-03-10T13:59:31Z,1520690371,2018,14,0,69.583,69.583,-68.2406,-41.4048,988.6,-1.42,-999.0,yes,yes,no,300234063808050,BD2GI,AOML,USN_SURVEY,South
2018-03-10T15:00:00Z,1520694000,2018,15,0,69.625,69.625,-68.233,-41.394,990.8,-1.36,-999.0,yes,yes,no,300234063808050,BD2GI,AOML,USN_SURVEY,South
2018-03-10T16:00:28Z,1520697629,2018,16,0,69.667,69.667,-68.2252,-41.3814,992.4,-1.32,-999.0,yes,yes,no,300234063808050,BD2GI,AOML,USN_SURVEY,South
2018-03-10T16:59:31Z,1520701171,2018,17,0,69.708,69.708,-68.2172,-41.37,992.9,-1.23,-999.0,yes,yes,no,300234063808050,BD2GI,AOML,USN_SURVEY,South
2018-03-10T18:00:00Z,1520704800,2018,18,0,69.75,69.75,-68.2094,-41.358,989.3,-1.26,-999.0,yes,yes,no,300234063808050,BD2GI,AOML,USN_SURVEY,South
2018-03-10T19:00:28Z,1520708429,2018,19,0,69.792,69.792,-68.2016,-41.345,986.0,-1.32,-999.0,yes,yes,no,300234063808050,BD2GI,AOML,USN_SURVEY,South
2018-03-10T19:59:31Z,1520711971,2018,20,0,69.833,69.833,-68.1926,-41.334,985.2,-1.25,-999.0,yes,yes,no,300234063808050,BD2GI,AOML,USN_SURVEY,South
2018-03-10T21:00:00Z,1520715600,2018,21,0,69.875,69.875,-68.1822,-41.3302,985.4,-1.26,-999.0,yes,yes,no,300234063808050,BD2GI,AOML,USN_SURVEY,South
2018-03-10T22:00:28Z,1520719229,2018,22,0,69.917,69.917,-68.171,-41.326,986.1,-1.25,-999.0,yes,yes,no,300234063808050,BD2GI,AOML,USN_SURVEY,South
2018-03-10T22:59:31Z,1520722771,2018,23,0,69.958,69.958,-68.163,-41.3288,986.3,-1.27,-999.0,yes,yes,no,300234063808050,BD2GI,AOML,USN_SURVEY,South
2018-03-11T00:00:00Z,1520726400,2018,0,0,70.0,70.0,-68.1538,-41.3346,987.5,-1.28,-999.0,yes,yes,no,300234063808050,BD2GI,AOML,USN_SURVEY,South
2018-03-11T01:00:28Z,1520730029,2018,1,0,70.042,70.042,-68.1442,-41.3418,989.4,-1.24,-999.0,yes,yes,no,300234063808050,BD2GI,AOML,USN_SURVEY,South
2018-03-11T01:59:31Z,1520733571,2018,2,0,70.083,70.083,-68.1394,-41.3506,992.2,-1.21,-999.0,yes,yes,no,300234063808050,BD2GI,AOML,USN_SURVEY,South
2018-03-11T03:00:00Z,1520737200,2018,3,0,70.125,70.125,-68.1388,-41.3604,992.5,-1.21,-999.0,yes,yes,no,300234063808050,BD2GI,AOML,USN_SURVEY,South
2018-03-11T04:00:28Z,1520740829,2018,4,0,70.167,70.167,-68.1402,-41.3684,992.4,-1.22,-999.0,yes,yes,no,300234063808050,BD2GI,AOML,USN_SURVEY,South
2018-03-11T04:59:31Z,1520744371,2018,5,0,70.208,70.208,-68.1366,-41.3768,991.3,-1.3,-999.0,yes,yes,no,300234063808050,BD2GI,AOML,USN_SURVEY,South
2018-03-11T06:00:00Z,1520748000,2018,6,0,70.25,70.25,-68.1354,-41.375,991.9,-1.3,-999.0,yes,yes,no,300234063808050,BD2GI,AOML,USN_SURVEY,South